Location: Duncanville
(32.6518°N, 96.9083°W)
Time: 10:06:48
(UTC+00:00)

MOS 1 Rocket - Pass Details

Date: 11 February 2026
Orbit: 608 x 814 km, 97.4° (Epoch: 7 March)

Event Time Altitude Azimuth Distance (km) Brightness Sun altitude
Rises 12:22:55 0° 16° (NNE) 2,899 6.6 -11.4°
Reaches altitude 10° 12:25:06 10° 20° (NNE) 2,006 5.8 -10.9°
Maximum altitude 12:29:24 59° 100° (E) 748 3.9 -10.0°
Drops below altitude 10° 12:33:53 10° 180° (S) 2,091 5.9 -9.1°
Sets 12:36:12 0° 184° (S) 3,035 6.7 -8.6°
